User: anonymous   Login
Location: Prairie State College
(41.5244°N, 87.6382°W)
Time: 01:11:00
(UTC-06:00)
Language:

ARGOS Delta rocket - Orbit

View from above orbital plane
View from above orbital plane
View from above satellite
View from above satellite

Ground track
Ground track

The orbit data is extracted from the following two-line orbital elements,

1 25637U 99008D   16036.12383852  .00000190  00000-0  53777-4 0  9990
2 25637  96.4490  47.3513 0144475  65.8563 335.0911 14.46386901893619
Epoch (UTC): 05 February 2016 02:58:19
Eccentricity: 0.0144475
inclination: 96.4490°
perigee height: 634 km
apogee height: 840 km
right ascension of ascending node: 47.3513°
argument of perigee: 65.8563°
revolutions per day: 14.46386901
mean anomaly at epoch: 335.0911°
orbit number at epoch: 89361

The dashed part of the orbit path shows where the satellite is in the earth's shadow,  

DLR